Location: Edoum�
(0.9447°N, 10.6482°E)
Time: 22:42:35
(UTC+00:00)

H-2A R/B - Pass Details

Date: 07 June 2020
Orbit: 577 x 656 km, 98.5° (Epoch: 10 July)

Event Time Altitude Azimuth Distance (km) Brightness Sun altitude
Exits shadow 03:14:21 16° 343° (NNW) 1,654 4.3 -27.5°
Drops below altitude 10° 03:15:13 10° 344° (NNW) 2,003 4.8 -27.3°
Sets 03:17:26 0° 346° (NNW) 2,920 5.7 -26.8°
